Wautoma, WI

7:21 AM CDT on October 23, 2017 (GMT -0500)
Wautoma

Weather History for KY50 - May, 2014

Change the Weather History Date:

Monday, May 5, 2014

  Actual Average (KPCZ) Record (KPCZ)
Temperature  
Mean Temperature 48 °F -  
Max Temperature 55 °F 67 °F 90 °F (1949)
Min Temperature 41 °F 43 °F 25 °F (1967)
Degree Days  
Heating Degree Days 17    
Moisture  
Dew Point 35 °F    
Average Humidity 60    
Maximum Humidity 76    
Minimum Humidity 47    
Precipitation  
Precipitation 0.00 in - - ()
Sea Level Pressure  
Sea Level Pressure 30.05 in    
Wind  
Wind Speed 8 mph (ENE)    
Max Wind Speed 14 mph    
Max Gust Speed 20 mph    
Visibility 10 miles    
Events      
Averages and records for this station are not official NWS values.
T = Trace of Precipitation, MM = Missing Value Source: NWS Daily Summary

Daily Weather History Graph

Daily Weather History Graph

Search for Another Location

Airport or City:

Trip Planner

Search our weather history database for the weather conditions in past years. The results will help you decide how hot, cold, wet, or windy it might be!

Date:

Astronomy

May. 05, 2014 Rise Set
Actual Time 5:43 AM CDT 8:05 PM CDT
Civil Twilight 5:11 AM CDT 8:37 PM CDT
Nautical Twilight 4:31 AM CDT 9:17 PM CDT
Astronomical Twilight 3:46 AM CDT 10:02 PM CDT
Moon 11:03 AM CDT (5/5) 12:49 AM CDT (5/5)
Length of Visible Light 15h 26m
Length of Day
14h 22m
Waxing Crescent, 37% of the Moon is Illuminated
May 5
Waxing Crescent
May 6
First Quarter
May 14
Full
May 21
Last Quarter
May 28
New

Hourly Weather History & Observations

Time (CDT) Temp. Windchill Dew Point Humidity Pressure Visibility Wind Dir Wind Speed Gust Speed Precip Events Conditions
12:56 AM 44.6 °F 41.4 °F 30.2 °F 57% 30.06 in 10.0 mi East 5.8 mph - N/A   Clear
1:56 AM 43.9 °F 40.5 °F 32.0 °F 63% 30.07 in 10.0 mi East 5.8 mph - N/A   Clear
2:56 AM 43.9 °F 39.9 °F 32.9 °F 65% 30.06 in 10.0 mi East 6.9 mph - N/A   Scattered Clouds
3:56 AM 43.0 °F 38.2 °F 32.9 °F 68% 30.05 in 10.0 mi ENE 8.1 mph - N/A   Scattered Clouds
4:56 AM 43.0 °F 37.7 °F 32.9 °F 68% 30.07 in 10.0 mi NE 9.2 mph - N/A   Scattered Clouds
5:56 AM 43.0 °F 40.3 °F 32.9 °F 68% 30.08 in 10.0 mi ENE 4.6 mph - N/A   Overcast
6:56 AM 41.9 °F 36.9 °F 32.0 °F 68% 30.09 in 10.0 mi ENE 8.1 mph - N/A   Overcast
7:56 AM 43.0 °F 36.8 °F 32.9 °F 68% 30.10 in 10.0 mi ENE 11.5 mph - N/A   Mostly Cloudy
8:56 AM 45.9 °F 39.7 °F 32.9 °F 61% 30.10 in 10.0 mi East 13.8 mph - N/A   Mostly Cloudy
9:56 AM 45.9 °F 39.7 °F 32.9 °F 61% 30.10 in 10.0 mi East 13.8 mph - N/A   Overcast
10:56 AM 50.0 °F - 34.9 °F 56% 30.09 in 10.0 mi ENE 12.7 mph - N/A   Scattered Clouds
11:56 AM 50.9 °F - 36.0 °F 57% 30.08 in 10.0 mi East 13.8 mph 19.6 mph N/A   Scattered Clouds
12:56 PM 52.9 °F - 36.0 °F 53% 30.06 in 10.0 mi NE 13.8 mph - N/A   Mostly Cloudy
1:56 PM 54.0 °F - 36.0 °F 51% 30.05 in 10.0 mi Variable 6.9 mph - N/A   Mostly Cloudy
2:56 PM 54.9 °F - 36.9 °F 51% 30.02 in 10.0 mi East 10.4 mph - N/A   Clear
3:56 PM 55.9 °F - 36.9 °F 49% 30.00 in 10.0 mi NE 12.7 mph 17.3 mph N/A   Clear
4:56 PM 55.9 °F - 36.0 °F 47% 30.00 in 10.0 mi ESE 6.9 mph - N/A   Clear
5:56 PM 55.9 °F - 36.0 °F 47% 30.01 in 10.0 mi East 9.2 mph - N/A   Clear
6:56 PM 55.4 °F - 37.4 °F 51% 30.02 in 10.0 mi East 8.1 mph - N/A   Clear
7:56 PM 52.0 °F - 36.9 °F 56% 30.02 in 10.0 mi Calm Calm - N/A   Clear
8:56 PM 48.9 °F - 36.9 °F 63% 30.04 in 10.0 mi East 3.5 mph - N/A   Clear
9:56 PM 46.4 °F - 37.4 °F 71% 30.04 in 10.0 mi Calm Calm - N/A   Clear
10:56 PM 43.9 °F - 36.9 °F 76% 30.05 in 10.0 mi Calm Calm - N/A   Clear